www.pogodaiklimat.ru

Погода и климат >> Архив погоды >> Россия >> Хабаровский край >> Георгиевка


ПОГОДА в Георгиевке

  • Прогноз погоды в Георгиевке
  • Монитор погоды в Георгиевке
  • Климат города

АРХИВ ПОГОДЫ в Георгиевке

Время (UTC), дата Ветер
(напр.,м/с)
 
Видим.   Явления Облачность Т
(С)
Тd
(С)
f
(%)
Тe
(С)
Тes
(С)
Комфортность P
(гПа)
Po
(гПа)
Тmin
(С)
Tmax
(С)
R
(мм)
R24
(мм)
S
(см)
21 10.10 СВ 1 4000 м дым 10 баллов -3.0 -4.4 90 -5 -5 1025.0 1016.0 -3.6
00 11.10 В 1 10 км дым 7 баллов +1.2 -2.4 77 -0 +1 1024.9 1016.0
03 11.10 штиль 0 10 км дым 9/0
[Cs]
+9.9 -2.0 43 +10 +17 1012.8 1013.2
06 11.10 СВ 1 10 км дым 8/0
[Cs]
+10.9 -5.2 32 +11 +14 1019.1 1010.5
09 11.10 штиль 0 4000 м дым 10 баллов +6.5 -2.1 54 +6 +6 1019.4 1010.7 +11.5
12 11.10 СВ 1 4000 м дым 10 баллов +6.0 -2.4 55 +5 +5 1019.4 1010.7
15 11.10 штиль 0 10 км 10/0
[Cs]
+4.4 -0.3 71 +4 +4 1017.8 1009.1
18 11.10 штиль 0 4000 м слабый дождь 10/6 600 м
[Sc As op]
+4.1 +2.6 90 +3 +3 1016.9 1008.2
21 11.10 ЮВ 1 4000 м слабый дождь 10 баллов +2.8 +1.6 92 +1 +1 1018.1 1009.3 +2.8 5
00 12.10 Ю 2 4000 м слабый дождь 10 баллов +2.8 +1.6 92 -0 -0 1018.1 1009.3 +2.5
03 12.10 З 1 4000 м слабый дождь 10/8 600 м
[Sc As op]
+3.7 +2.2 90 +2 +2 1016.7 1008.0
06 12.10 ЮЗ 2 20 км {дождь} 10/8 600 м
[Sc As op]
+3.5 +2.4 92 0 +1 1016.6 1007.9
09 12.10 Ю 1 4000 м дым 10 баллов +2.9 +2.0 94 +1 +1 1018.1 1009.3 +3.8 6
12 12.10 Ю 1 4000 м дым 10 баллов +2.8 +1.6 92 +1 +1 1018.1 1009.3
15 12.10 Ю 1 10 км 10 баллов +2.7 +1.1 89 +1 +1 1018.1 1009.3
18 12.10 Ю 1 10 км 10/0
[As op]
+2.0 +0.3 88 0 0 1016.8 1008.0
21 12.10 ЮЗ 1 4000 м дым 10 баллов +1.7 -0.2 87 -0 -0 1018.1 1009.3 +1.2
00 13.10 ЮЗ 2 20 км 9/4 600 м
[Sc Ac As]
+3.6 +0.8 82 +1 +1 1017.6 1008.9
03 13.10 ЮЗ 2 20 км 8/8 600 м
[Cb cap]
+6.4 -0.0 64 +4 +6 1017.4 1008.7
06 13.10 З 5 20 км 8/8 600 м
[Cb cap]
+7.8 -3.4 45 +5 +5 1016.4 1007.8
09 13.10 ЮЗ 1 10 км 2 балла +4.1 -2.3 63 +3 +3 1019.4 1010.7 +9.1
12 13.10 Ю 1 10 км 8/8 600 м
[Cb cap]
+0.3 -1.8 86 -2 -2 1019.1 1010.3
15 13.10 штиль 0 10 км 4/4 600 м
[Sc]
-1.1 -2.0 94 -2 -2 1019.3 1010.4
18 13.10 штиль 0 10 км 10/3 600 м
[Sc Cs]
-1.7 -2.1 97 -3 -3 1019.3 1010.4
21 13.10 штиль 0 10 км 10 баллов -2.7 -3.1 97 -4 -4 1019.7 1010.7 -2.8
00 14.10 Ю 1 4000 м слабый дождь со снегом 10 баллов +1.2 -0.6 88 -1 -1 1020.8 1012.0
03 14.10 Ю 2 20 км {снег, дождь} 10/10 600 м
[Cb cap]
+3.7 +1.7 87 +1 +1 1019.5 1010.8
06 14.10 Ю 2 20 км {снег} 9/6 600 м
[Cb cap Ci ing]
+5.3 +2.1 80 +3 +4 1019.6 1010.9
09 14.10 штиль 0 10 км 10 баллов +2.1 +0.6 90 +1 +1 1022.1 1013.3 +5.3 0.0
12 14.10 ЮЗ 1 10 км 10/10 600 м
[Sc]
+2.2 +1.0 92 0 0 1021.7 1012.9
15 14.10 ЮЗ 1 10 км 10/10 600 м
[Sc]
+1.8 -0.1 87 0 0 1022.1 1013.3
18 14.10 Ю 1 10 км 4/4 600 м
[Sc]
-1.1 -2.4 91 -3 -3 1022.8 1013.9
21 14.10 Ю 2 10 км 1 балл -2.3 -3.4 92 -6 -6 1025.0 1016.0 -2.5 0.5
00 15.10 З 3 20 км 3/3 600 м
[Sc]
+2.1 -1.9 75 -2 -1 1024.5 1015.7
03 15.10 ЮЗ 4 20 км 5/5 600 м
[Cb cap]
+5.8 -2.7 54 +2 +4 1024.1 1015.4
06 15.10 З 6
{11}
20 км 8/8 600 м
[Cb cap]
+5.5 -5.6 45 +1 +1 1024.3 1015.6
09 15.10 З 4 10 км 7 баллов +3.7 -7.4 44 0 0 1027.5 1018.7 +6.4
12 15.10 ЮЗ 2 10 км 6/6 600 м
[Sc]
+0.4 -5.6 64 -3 -3 1027.2 1018.3
15 15.10 ЮЗ 1 10 км 3/3 600 м
[Sc]
-2.1 -5.5 77 -4 -4 1027.7 1018.7
18 15.10 ЮЗ 1 10 км 3/3 600 м
[Sc]
-4.3 -5.9 89 -7 -7 1027.7 1018.6
21 15.10 штиль 0 4000 м дым 2 балла -6.0 -6.8 94 -7 -7 1029.2 1020.0 -6.1
00 16.10 З 2 4000 м дым ясно +1.0 -5.0 64 -2 0 1028.9 1020.0 -6.5
03 16.10 ЮЗ 3 20 км ясно +7.2 -7.9 33 +5 +10 1025.8 1017.1
06 16.10 З 4 4000 м дым ясно +7.6 -7.8 33 +5 +7 1024.1 1015.4
09 16.10 Ю 1 4000 м дым 10 баллов +3.3 -6.7 48 +3 +3 1024.8 1016.0 +8.4
12 16.10 Ю 2 10 км ясно +1.9 -8.1 47 -1 -1 1023.3 1014.5
15 16.10 ЮЗ 2 10 км 10/10 600 м
[Sc]
+0.1 -7.0 59 -3 -3 1022.2 1013.3
18 16.10 Ю 2 4000 м слабый снег 10/0
[As op]
-0.0 -0.7 95 -4 -4 1020.0 1011.2
21 16.10 ЮЗ 3 4000 м дым 10 баллов +0.6 -0.3 94 -4 -4 1020.9 1012.0 -0.6 0.6
00 17.10 З 3 20 км 7 баллов +1.8 -1.1 81 -2 -2 1020.8 1012.0
03 17.10 З 5 20 км 9/9 600 м
[Cb cap]
+3.7 -0.1 76 -1 -1 1020.9 1012.2
06 17.10 З 2 20 км 6/6 600 м
[Cb cap]
+5.8 -2.5 55 +4 +5 1022.0 1013.3
09 17.10 З 2 10 км 2 балла +2.2 -10.6 38 -0 -0 1024.8 1016.0 +5.9
12 17.10 З 3 10 км ясно -1.1 -10.2 50 -5 -5 1026.0 1017.1
15 17.10 ЮЗ 2 10 км ясно -3.4 -10.5 58 -7 -7 1027.3 1018.2

 

Местоположение метеостанции Георгиевка (Хабаровский край, Россия): широта 47.95 долгота 135.20 высота над уровнем моря 70 м.

В архиве по умолчанию представлена погода в Георгиевке за последнюю неделю. Архивные данные за месяц целиком и за предыдущие месяцы, начиная с января 2011 года, Вы можете получить, выбрав интересующий диапазон дат из раскрывающегося списка и нажав кнопку "Ввод!".

Внимание! Время в таблицах - всемирное. Для получения местного времени необходимо прибавить поправку, которая в Георгиевке равна 10 ч.

Смотрите также архив погоды в соседних городах и на ближайших метеорологических станциях:

Погода в Бичевой (Хабаровский край, Россия) (36 км)
Погода в Вяземском (Хабаровский край, Россия) (61 км)
Погода в Хабаровске Агромет (Хабаровский край, Россия) (64 км)
Погода в Хабаровске (Хабаровский край, Россия) (64 км)
Погода в Гвасюгах (Хабаровский край, Россия) (74 км)
Погода в Елабуге (Хабаровский край, Россия) (106 км)
Погода в Лермонтовке (Хабаровский край, Россия) (112 км)
Погода в Смидовиче (Еврейская автономная область, Россия) (126 км)
Погода в Литовко (Хабаровский край, Россия) (143 км)
Погода в Бикине (Хабаровский край, Россия) (148 км)

Пояснения к столбцам:

Ветер - указаны скорость ветра в м/с - средняя за 10 мин, порывы в срок и между сроками (в фигурных скобках) и направление, откуда дует ветер: С - северный, СВ - северо-восточный, В - восточный, ЮВ - юго-восточный, Ю - южный, ЮЗ - юго-западный, З - западный, СЗ - северо-западный.
Видимость - горизонтальная дальность видимости в метрах или километрах. При видимости от 1 до 10 км при отсутствии осадков обычно наблюдается дымка, при ухудшении видимости до 1 км и менее - туман. В сухую погоду видимость может ухудшаться дымом, пылью или мглою.
Явления - указаны атмосферные явления, наблюдавшиеся в срок или в последний час перед сроком; фигурными скобками обозначены явления, наблюдавшиеся между сроками (за 1-3 часа до срока); квадратными скобками обозначены град или гололедные отложения с указанием их диаметра в мм.
Облачность - указаны через наклонную черту общая и нижняя облачность в баллах и высота нижней границы облаков в метрах; квадратными скобками обозначены формы облаков: Ci - перистые, Cs - перисто-слоистые, Cc - перисто-кучевые, Ac - высококучевые, As - высокослоистые, Sc - слоисто-кучевые, Ns - слоисто-дождевые, Cu - кучевые, Cb - кучево-дождевые. Подробнее классификацию облаков см. в Атласе облаков (PDF).
T - Температура воздуха - температура, измеренная на высоте 2 м над землей.
Td - Температура точки росы - температура, при понижении до которой содержащийся в воздухе водяной пар достигнет насыщения.
f - Относительная влажность воздуха - влажноcть воздуха, измеренная на высоте 2 м над землей.
Te - Эффективная температура - температура, которую ощущает одетый по сезону человек в тени. Характеристика душности погоды. При расчете учитывается влияние влажности воздуха и скорости ветра на теплоощущения человека.
Tes - Эффективная температура на солнце - температура, которую ощущает человек, с поправкой на солнечный нагрев. Характеристика знойности погоды. Зависит от высоты солнца над горизонтом, облачности и скорости ветра. Ночью, в пасмурную погоду, а также при ветре 12 м/с и более поправка равна нулю.
P - Атмосферное давление - приведенное к уровню моря атмосферное давление.
Po - Атмосферное давление - измеренное на уровне метеостанции атмосферное давление.
Tmin - Минимальная температура - минимум температуры воздуха на высоте 2 м над землей.
Tmax - Максимальная температура - максимум температуры воздуха на высоте 2 м над землей.
R - Количество осадков - Количество выпавших осадков за период времени, мм. При наведении курсора мыши на число - период времени, за который выпало указанное количество осадков.
R24 - Количество осадков - Количество выпавших осадков за 24 часа, мм.
S - Снежный покров - Высота снежного покрова, см. При наведении курсора мыши на число - состояние снежного покрова и степень покрытия местности в баллах.